Hourly Data Report for October 03, 2013

All times are specified in Local Standard Time (LST). Add 1 hour to adjust for Daylight Saving Time where and when it is observed.

KAMLOOPS A
BRITISH COLUMBIA

50°42'09.000" N
120°26'55.000" W
345.30 m
1163781
71887
YKA

Download Data

Hourly Data (October 2013)
Hourly Data Report for October 3, 2013
Temp Definition
°C
Dew Point Temp Definition
°C
Rel Hum Definition
%
Wind Dir Definition
10's deg

Wind Spd Definition
km/h
Visibility Definition
km
Stn Press Definition
kPa
Hmdx Definition


Wind Chill Definition


Weather Definition


TIME
00:00 Legend Double Dagger 5.3 2.3 81 9 4 64.4 98.21     LegendNANA
01:00 Legend Double Dagger 4.3 2.2 86 4 2 64.4 98.28     Mostly Cloudy
02:00 Legend Double Dagger 2.5 0.6 87 2 3 64.4 98.34     LegendNANA
03:00 Legend Double Dagger 2.1 -0.2 85 16 1 64.4 98.40     LegendNANA
04:00 Legend Double Dagger 2.2 0.4 88 1 3 64.4 98.48     Clear
05:00 Legend Double Dagger 2.0 0.4 89 9 3 64.4 98.55     LegendNANA
06:00 Legend Double Dagger 1.4 -0.1 90 6 5 64.4 98.62     LegendNANA
07:00 Legend Double Dagger 1.1 -0.7 88 4 4 64.4 98.69     Mainly Clear
08:00 Legend Double Dagger 4.5 1.7 82 5 3 64.4 98.74     LegendNANA
09:00 Legend Double Dagger 6.5 2.0 73 13 5 64.4 98.80     LegendNANA
10:00 Legend Double Dagger 7.8 2.1 67 16 8 64.4 98.78     Clear
11:00 Legend Double Dagger 9.4 1.8 59 15 6 64.4 98.74     LegendNANA
12:00 Legend Double Dagger 11.6 1.9 51 17 5 64.4 98.69     LegendNANA
13:00 Legend Double Dagger 12.9 1.9 47 16 6 64.4 98.63     Mainly Clear
14:00 Legend Double Dagger 14.6 0.9 39 18 8 64.4 98.59     LegendNANA
15:00 Legend Double Dagger 15.6 0.3 35 9 4 64.4 98.57     LegendNANA
16:00 Legend Double Dagger 15.8 -1.7 30 14 5 64.4 98.56     Mainly Clear
17:00 Legend Double Dagger 14.6 0.2 37 12 6 64.4 98.56     LegendNANA
18:00 Legend Double Dagger 10.2 1.1 53 29 5 64.4 98.61     LegendNANA
19:00 Legend Double Dagger 9.5 -1.2 47 3 2 64.4 98.68     Clear
20:00 Legend Double Dagger 7.6 -0.6 56 6 12 64.4 98.75     LegendNANA
21:00 Legend Double Dagger 7.7 -0.3 57 11 4 64.4 98.80     LegendNANA
22:00 Legend Double Dagger 6.6 -0.4 61 10 5 64.4 98.85     Clear
23:00 Legend Double Dagger 6.0 -0.7 62 13 5 64.4 98.90     LegendNANA

Notes on Data Quality.

Legend

  • E = Estimated
  • M = Missing
  • NA = Not Available
  • ‡ = Partner data that is not subject to review by the National Climate Archives
Date modified: